• In Latvia
  • List of Countries
  • For 7 days
  • Water Temperature
  • Satellite Maps
  • Weather Map
  • Weather Widgets
  • user-avatar
    Login

    Hourly Weather Krasnogvardeyskoe

    Today, 26 September, Wednesday

    Time Temperature Precipitation Wind Pressure Humidity
    00:00 +15°C° 0.4 mm 2 mps 762 mmHg 81%
    01:00 +14°C° 0.1 mm 2 mps 762 mmHg 80%
    02:00 +14°C° 0.1 mm 2 mps 762 mmHg 79%
    03:00 +14°C° 0 mm 2 mps 763 mmHg 80%
    04:00 +14°C° 0 mm 2 mps 763 mmHg 79%
    05:00 +13°C° 0 mm 2 mps 763 mmHg 78%
    06:00 +13°C° 0 mm 2 mps 764 mmHg 77%
    07:00 +14°C° 0 mm 2 mps 764 mmHg 73%
    08:00 +15°C° 0 mm 2 mps 764 mmHg 68%
    09:00 +16°C° 0 mm 3 mps 764 mmHg 63%
    10:00 +17°C° 0 mm 3 mps 764 mmHg 58%
    11:00 +18°C° 0 mm 3 mps 765 mmHg 52%
    12:00 +18°C° 0 mm 3 mps 765 mmHg 46%
    13:00 +19°C° 0 mm 3 mps 765 mmHg 45%
    14:00 +19°C° 0 mm 3 mps 765 mmHg 43%
    15:00 +19°C° 0 mm 3 mps 765 mmHg 41%
    16:00 +18°C° 0 mm 3 mps 765 mmHg 43%
    17:00 +17°C° 0 mm 3 mps 765 mmHg 45%
    18:00 +17°C° 0 mm 3 mps 765 mmHg 48%
    19:00 +16°C° 0 mm 3 mps 766 mmHg 50%
    20:00 +14°C° 0 mm 3 mps 766 mmHg 52%
    21:00 +13°C° 0 mm 3 mps 767 mmHg 54%
    22:00 +13°C° 0 mm 3 mps 767 mmHg 56%
    23:00 +12°C° 0 mm 3 mps 767 mmHg 58%

    Tomorrow, 27 September, Thursday

    Time Temperature Precipitation Wind Pressure Humidity
    00:00 +12°C° 0 mm 2 mps 767 mmHg 60%
    01:00 +12°C° 0 mm 2 mps 767 mmHg 61%
    02:00 +12°C° 0 mm 2 mps 767 mmHg 62%
    03:00 +10°C° 0 mm 2 mps 767 mmHg 63%
    04:00 +10°C° 0 mm 2 mps 767 mmHg 65%
    05:00 +10°C° 0 mm 2 mps 767 mmHg 66%
    06:00 +9°C° 0 mm 2 mps 767 mmHg 67%
    07:00 +12°C° 0 mm 2 mps 767 mmHg 62%
    08:00 +14°C° 0 mm 2 mps 767 mmHg 56%
    09:00 +15°C° 0 mm 2 mps 767 mmHg 51%
    10:00 +17°C° 0 mm 2 mps 767 mmHg 46%
    11:00 +18°C° 0 mm 2 mps 766 mmHg 42%
    12:00 +19°C° 0 mm 2 mps 766 mmHg 37%
    13:00 +20°C° 0 mm 2 mps 766 mmHg 36%
    14:00 +20°C° 0 mm 2 mps 765 mmHg 34%
    15:00 +21°C° 0 mm 2 mps 765 mmHg 33%
    16:00 +20°C° 0 mm 2 mps 765 mmHg 36%
    17:00 +18°C° 0 mm 2 mps 765 mmHg 39%
    18:00 +17°C° 0 mm 3 mps 765 mmHg 42%
    19:00 +16°C° 0 mm 3 mps 765 mmHg 45%
    20:00 +14°C° 0 mm 3 mps 765 mmHg 49%
    21:00 +13°C° 0 mm 3 mps 766 mmHg 53%
    22:00 +13°C° 0 mm 2 mps 766 mmHg 56%
    23:00 +12°C° 0 mm 2 mps 766 mmHg 59%

    Day after tomorrow, 28 September, Friday

    Time Temperature Precipitation Wind Pressure Humidity
    00:00 +11°C° 0 mm 1 mps 766 mmHg 62%
    01:00 +11°C° 0 mm 1 mps 766 mmHg 63%
    02:00 +10°C° 0 mm 0 mps 765 mmHg 64%
    03:00 +9°C° 0 mm 0 mps 765 mmHg 65%
    04:00 +9°C° 0 mm 0 mps 765 mmHg 66%
    05:00 +10°C° 0 mm 1 mps 765 mmHg 66%
    06:00 +10°C° 0 mm 1 mps 765 mmHg 67%
    07:00 +12°C° 0 mm 1 mps 765 mmHg 60%
    08:00 +13°C° 0 mm 1 mps 765 mmHg 54%
    09:00 +15°C° 0 mm 1 mps 764 mmHg 47%
    10:00 +18°C° 0 mm 1 mps 764 mmHg 43%
    11:00 +20°C° 0 mm 1 mps 764 mmHg 39%
    12:00 +22°C° 0 mm 1 mps 763 mmHg 36%
    13:00 +23°C° 0 mm 1 mps 763 mmHg 36%
    14:00 +23°C° 0 mm 1 mps 762 mmHg 36%
    15:00 +24°C° 0 mm 1 mps 762 mmHg 36%
    16:00 +23°C° 0 mm 1 mps 761 mmHg 39%
    17:00 +22°C° 0 mm 1 mps 761 mmHg 43%
    18:00 +21°C° 0 mm 1 mps 761 mmHg 46%
    19:00 +19°C° 0 mm 2 mps 761 mmHg 48%
    20:00 +18°C° 0 mm 2 mps 761 mmHg 49%
    21:00 +17°C° 0 mm 2 mps 761 mmHg 50%
    22:00 +17°C° 0 mm 2 mps 760 mmHg 51%
    23:00 +16°C° 0 mm 1 mps 760 mmHg 51%

    29 September, Saturday

    Time Temperature Precipitation Wind Pressure Humidity
    00:00 +16°C° 0 mm 1 mps 760 mmHg 52%
    01:00 +15°C° 0 mm 1 mps 760 mmHg 53%
    02:00 +15°C° 0 mm 1 mps 760 mmHg 54%
    03:00 +15°C° 0 mm 1 mps 760 mmHg 55%
    04:00 +14°C° 0 mm 1 mps 760 mmHg 56%
    05:00 +14°C° 0 mm 1 mps 760 mmHg 57%
    06:00 +14°C° 0 mm 1 mps 759 mmHg 58%
    07:00 +16°C° 0 mm 1 mps 759 mmHg 54%
    08:00 +18°C° 0 mm 1 mps 759 mmHg 51%
    09:00 +20°C° 0 mm 1 mps 759 mmHg 47%
    10:00 +21°C° 0 mm 2 mps 759 mmHg 45%
    11:00 +24°C° 0 mm 2 mps 758 mmHg 42%
    12:00 +25°C° 0 mm 2 mps 758 mmHg 40%
    13:00 +26°C° 0 mm 1 mps 758 mmHg 39%
    14:00 +27°C° 0 mm 1 mps 757 mmHg 38%
    15:00 +27°C° 0 mm 1 mps 757 mmHg 37%
    16:00 +26°C° 0 mm 1 mps 757 mmHg 41%
    17:00 +25°C° 0 mm 1 mps 757 mmHg 45%
    18:00 +24°C° 0 mm 1 mps 757 mmHg 49%
    19:00 +23°C° 0 mm 1 mps 757 mmHg 51%
    20:00 +22°C° 0 mm 1 mps 757 mmHg 53%
    21:00 +20°C° 0 mm 2 mps 757 mmHg 54%
    22:00 +20°C° 0 mm 2 mps 757 mmHg 56%
    23:00 +20°C° 0 mm 1 mps 757 mmHg 57%

    30 September, Sunday

    Time Temperature Precipitation Wind Pressure Humidity
    00:00 +20°C° 0 mm 1 mps 757 mmHg 58%
    01:00 +19°C° 0 mm 1 mps 757 mmHg 60%
    02:00 +19°C° 0 mm 1 mps 757 mmHg 62%
    03:00 +19°C° 0 mm 1 mps 757 mmHg 63%
    04:00 +18°C° 0 mm 1 mps 757 mmHg 65%
    05:00 +18°C° 0 mm 1 mps 757 mmHg 66%
    06:00 +16°C° 0 mm 1 mps 757 mmHg 68%
    07:00 +19°C° 0 mm 1 mps 757 mmHg 63%
    08:00 +20°C° 0 mm 1 mps 757 mmHg 59%
    09:00 +22°C° 0 mm 1 mps 758 mmHg 55%
    10:00 +23°C° 0 mm 2 mps 758 mmHg 52%
    11:00 +24°C° 0 mm 3 mps 758 mmHg 50%
    12:00 +26°C° 0 mm 3 mps 758 mmHg 48%
    13:00 +25°C° 0.1 mm 4 mps 758 mmHg 51%
    14:00 +23°C° 0.1 mm 5 mps 758 mmHg 54%
    15:00 +23°C° 0.1 mm 5 mps 758 mmHg 57%
    16:00 +22°C° 0.2 mm 5 mps 758 mmHg 61%
    17:00 +21°C° 0.2 mm 5 mps 758 mmHg 65%
    18:00 +20°C° 0.2 mm 5 mps 759 mmHg 69%
    19:00 +19°C° 0.1 mm 5 mps 759 mmHg 71%
    20:00 +17°C° 0.1 mm 5 mps 759 mmHg 72%
    21:00 +17°C° 0.1 mm 6 mps 760 mmHg 73%
    22:00 +16°C° 0 mm 6 mps 760 mmHg 74%
    23:00 +16°C° 0 mm 6 mps 760 mmHg 74%

    1 October, Monday

    Time Temperature Precipitation Wind Pressure Humidity
    00:00 +16°C° 0 mm 6 mps 760 mmHg 74%
    01:00 +15°C° 0 mm 6 mps 759 mmHg 74%
    02:00 +15°C° 0 mm 7 mps 759 mmHg 74%
    03:00 +15°C° 0 mm 7 mps 759 mmHg 74%
    04:00 +14°C° 0 mm 7 mps 759 mmHg 75%
    05:00 +14°C° 0 mm 7 mps 759 mmHg 75%
    06:00 +12°C° 0 mm 7 mps 759 mmHg 75%
    07:00 +15°C° 0 mm 7 mps 759 mmHg 71%
    08:00 +16°C° 0 mm 7 mps 759 mmHg 67%
    09:00 +17°C° 0 mm 7 mps 759 mmHg 62%
    10:00 +18°C° 0 mm 7 mps 759 mmHg 58%
    11:00 +21°C° 0 mm 7 mps 759 mmHg 53%
    12:00 +23°C° 0 mm 7 mps 758 mmHg 48%
    13:00 +24°C° 0 mm 7 mps 758 mmHg 46%
    14:00 +26°C° 0 mm 7 mps 758 mmHg 44%
    15:00 +26°C° 0 mm 7 mps 757 mmHg 43%
    16:00 +24°C° 0 mm 7 mps 757 mmHg 45%
    17:00 +23°C° 0 mm 7 mps 757 mmHg 47%
    18:00 +22°C° 0 mm 6 mps 757 mmHg 49%
    19:00 +22°C° 0 mm 6 mps 757 mmHg 51%
    20:00 +21°C° 0 mm 7 mps 757 mmHg 54%
    21:00 +20°C° 0 mm 7 mps 757 mmHg 57%
    22:00 +20°C° 0 mm 6 mps 757 mmHg 60%
    23:00 +19°C° 0 mm 6 mps 757 mmHg 64%
    Show more